カタログに戻る

SIMSAT 2

運用中アマチュア無線PO
NORAD 26366·PAYLOAD·🇷🇺 Russia

打ち上げ May 16, 2000 から Plesetsk Cosmodrome

Loading…

次のパス (今後24時間)

TLE

最新Source: Space-Track

元期: Sep 14, 2026, 11:26 UTC

1 26366U 00026B   26257.47672833  .00001775  00000-0  60077-4 0  9997
2 26366  86.3396  83.5727 0003683 299.6794  60.4087 15.29829778456860

AllMySatでSIMSAT 2をリアルタイム追跡

Download on the App Store